Wind_Speed
66 68 70 72 75 78 80 81 84 85 87 89 92 94 98 102 107 111 114 117 119 121 123 125 126 126 125 125 126 126 127 127 128 129 131 131 131 131 132 132 130 128 129 130 131 133 134 134 133 132 131 130 129 128 128 128 129 130 131 131 131 131 131
62 64 66 68 70 73 75 77 79 81 82 84 87 90 93 97 100 104 109 112 115 118 120 122 124 124 125 125 125 126 126 126 126 127 129 130 130 130 130 130 128 126 126 127 127 128 129 129 129 129 130 130 130 129 128 127 127 128 129 129 129 130 130
60 61 63 64 66 68 70 72 74 77 78 80 82 85 88 92 95 98 103 107 111 114 117 119 121 122 124 125 125 124 125 125 125 126 127 129 129 129 129 129 128 126 124 124 124 125 125 125 125 126 127 128 129 128 126 125 125 126 127 127 128 128 129
58 59 60 62 63 65 67 69 70 72 74 76 78 80 83 86 89 93 97 101 105 109 112 115 117 118 121 123 124 123 123 123 124 124 125 127 127 128 128 128 127 125 123 122 121 122 122 123 123 123 124 125 126 125 124 122 122 123 124 125 125 126 126
57 58 58 59 61 62 64 66 67 69 71 73 75 77 78 81 84 87 91 95 100 104 107 110 112 114 117 120 121 122 122 122 122 123 124 125 125 126 126 126 125 124 122 120 119 118 119 120 120 121 122 123 123 122 122 121 121 121 122 123 123 123 124
56 57 57 58 59 60 62 63 65 66 68 69 71 73 74 76 78 81 85 89 93 97 101 105 107 110 113 116 117 118 120 121 121 121 121 122 123 124 125 125 124 122 120 118 117 116 116 117 117 118 119 120 120 120 120 120 120 119 120 120 120 120 122
53 55 55 56 57 58 59 61 63 64 65 66 68 69 70 72 74 76 79 82 86 90 94 98 101 104 108 111 113 114 117 119 119 119 119 120 121 122 122 123 123 121 119 117 115 114 113 113 113 114 115 116 117 118 118 118 118 118 118 119 119 120 121
49 51 52 53 55 56 58 59 60 62 63 64 65 66 67 69 70 72 74 77 80 83 87 91 94 97 101 104 107 110 112 114 116 116 116 117 118 119 119 120 120 120 119 115 113 112 111 111 110 110 111 112 113 114 115 117 118 119 120 120 120 121 121
45 47 48 50 51 53 55 57 58 60 61 61 63 64 65 67 68 69 71 73 76 78 81 85 88 91 94 97 101 104 107 109 111 112 113 114 115 116 116 117 118 118 118 115 112 109 109 109 109 108 108 108 109 111 113 116 118 119 120 120 120 120 121
43 44 45 46 47 48 50 53 55 57 58 59 61 62 64 65 66 68 69 71 73 75 77 80 82 85 89 92 95 98 101 103 105 107 109 110 111 112 113 113 114 115 115 113 110 108 107 107 107 107 107 107 107 109 112 115 116 117 118 118 119 120 120
41 42 43 44 45 45 46 48 50 52 55 57 59 61 62 63 64 66 67 69 71 73 74 76 78 81 84 86 89 92 95 97 99 101 104 106 108 109 109 110 110 110 110 109 106 104 103 104 105 105 105 106 106 108 110 113 114 115 115 116 117 118 120
39 40 41 42 43 44 44 45 46 47 50 54 56 58 60 61 62 64 66 68 70 72 73 75 76 78 81 83 85 88 90 92 94 96 99 101 103 104 105 106 106 106 105 104 101 99 98 99 101 102 102 102 103 105 108 111 112 113 113 113 114 117 119
38 39 40 41 42 43 43 44 44 45 46 49 51 54 56 58 61 63 65 67 68 70 71 73 75 76 78 80 81 83 85 87 89 91 93 95 97 99 100 101 102 102 102 101 99 96 94 94 95 97 97 98 100 102 105 107 108 109 109 111 112 115 117
37 37 38 39 40 41 41 42 43 44 45 46 47 49 52 55 57 60 62 64 65 67 69 70 72 74 75 77 78 80 82 83 85 87 88 89 90 91 93 95 96 97 98 98 97 95 94 93 93 93 93 94 96 98 100 102 103 104 105 107 109 111 114
35 36 36 36 37 38 39 39 41 43 44 45 46 47 49 51 54 56 59 61 63 65 66 68 70 71 73 75 76 77 79 80 81 82 82 83 84 85 87 88 90 92 93 94 94 94 94 93 93 91 90 91 92 94 96 98 99 100 101 103 105 107 109
34 35 35 36 36 36 37 37 38 40 42 43 44 45 47 50 52 55 57 59 60 62 63 65 66 68 70 72 73 74 76 76 77 77 77 78 79 81 82 84 85 87 89 90 90 91 91 92 91 91 90 90 90 91 93 96 97 98 98 99 101 103 104
32 33 34 35 36 36 35 35 36 38 39 40 42 43 45 48 50 53 54 55 56 58 59 60 62 63 65 67 69 70 71 72 73 73 73 75 76 77 78 80 82 84 85 85 86 87 88 88 89 89 89 88 89 90 92 94 96 96 96 97 98 100 101
31 32 33 34 35 35 35 35 35 37 38 39 40 41 43 46 48 50 51 52 52 53 54 56 58 59 61 63 65 67 67 68 69 69 71 73 74 75 76 77 79 81 81 81 82 83 84 85 86 86 86 86 86 87 90 92 94 94 95 96 97 98 99
29 31 32 33 34 35 35 35 35 36 37 37 38 39 41 43 44 46 48 49 50 51 52 53 55 56 58 60 62 64 64 65 66 67 69 71 72 73 73 75 77 77 77 78 79 80 80 81 82 82 83 83 83 84 86 89 91 92 93 93 94 94 95
27 28 29 30 31 32 33 33 33 34 35 35 36 37 39 41 42 43 44 45 47 48 49 50 52 53 54 56 58 59 60 61 62 64 66 68 69 70 71 73 74 74 74 75 76 76 77 77 78 79 79 80 80 80 83 85 86 87 88 88 89 90 90
25 25 26 27 28 29 30 30 31 32 33 34 35 36 37 38 39 40 41 42 43 45 46 48 49 50 51 52 53 54 55 55 56 59 62 64 65 67 68 69 70 70 71 71 72 72 73 73 74 75 75 76 77 77 78 79 79 80 81 82 84 85 86
22 23 23 24 25 26 27 28 29 30 31 31 32 33 34 35 36 37 38 39 41 42 43 44 45 46 47 48 49 50 51 51 52 54 56 58 60 63 64 64 65 65 66 67 68 69 69 70 71 72 72 73 73 72 71 72 73 75 76 78 79 80 80
18 20 21 22 23 24 24 25 27 28 28 29 30 31 31 32 33 35 36 37 38 39 40 41 41 42 43 44 45 46 47 48 50 51 52 53 54 57 58 59 60 61 62 63 64 64 65 65 66 68 69 69 68 66 66 68 70 71 73 74 74 74 74
15 16 17 18 19 21 22 23 23 24 25 26 26 27 28 29 30 31 33 34 36 37 38 39 40 40 41 42 42 43 44 45 46 47 48 49 50 50 51 53 55 58 59 59 59 60 60 61 62 64 65 63 61 61 63 65 67 68 69 69 70 70 70
12 13 14 15 16 17 18 19 20 21 21 22 22 22 23 24 26 28 30 32 33 35 36 37 38 39 40 41 41 41 42 42 42 43 44 45 46 46 47 49 51 53 54 54 55 56 57 58 59 60 58 55 55 58 61 62 63 65 65 66 67 67 67
12 13 13 13 14 15 16 17 17 18 18 19 19 19 20 21 23 25 27 28 30 31 32 34 35 37 38 39 40 40 40 39 40 41 42 43 43 44 44 45 46 47 48 49 50 52 53 54 54 52 50 50 54 57 58 59 60 61 61 62 63 63 64
11 12 13 13 14 14 15 15 16 16 16 17 17 18 18 20 21 22 23 25 26 28 29 30 32 33 35 36 37 37 38 38 38 39 40 40 41 41 41 42 42 43 43 44 46 48 49 49 48 47 47 50 53 55 56 56 57 57 57 58 59 60 61
10 10 11 12 13 14 14 15 15 15 15 15 16 17 18 18 19 20 21 22 23 25 26 28 29 30 31 33 34 34 35 35 35 36 37 38 38 39 39 39 40 40 41 42 43 45 46 46 46 46 48 50 52 52 52 53 53 54 55 56 58 59 60
8 9 10 11 12 12 13 13 13 14 14 15 15 16 17 17 18 18 19 20 21 22 23 25 26 28 29 30 31 31 31 32 32 33 34 35 36 37 37 38 38 39 40 40 41 43 43 43 44 44 46 47 48 49 50 51 52 53 55 57 58 60 61
7 7 7 8 9 10 10 11 12 12 13 13 14 15 15 16 16 16 17 17 18 19 20 22 24 25 27 27 28 28 29 29 30 31 31 32 33 34 35 36 37 38 39 39 40 41 42 42 42 43 44 46 47 49 50 52 53 54 56 58 59 59 60
4 4 5 6 7 7 8 9 10 11 11 12 12 12 13 13 14 14 15 15 16 17 18 19 21 22 23 24 24 25 26 26 27 28 29 30 32 33 34 35 36 37 38 39 40 41 41 42 43 44 46 47 49 50 51 52 53 54 55 56 56 57 58
2 2 3 4 5 6 7 8 9 9 10 10 10 10 11 11 11 12 13 13 14 15 15 16 17 18 19 20 20 21 22 23 25 26 27 28 29 30 31 33 34 35 36 38 39 40 41 42 43 44 45 46 47 48 49 49 50 51 52 52 53 54 55
1 1 1 2 3 5 6 7 8 9 9 10 10 11 11 11 11 12 12 12 13 13 14 14 15 15 16 17 18 19 19 21 22 23 24 25 26 27 28 29 30 31 32 34 35 36 37 38 39 40 41 42 43 44 45 45 46 47 48 49 50 50 51
3 3 2 1 1 3 4 5 6 8 9 10 10 11 12 12 12 13 12 13 13 13 13 13 14 15 16 16 17 18 19 20 20 21 22 23 24 25 25 26 27 28 29 30 31 32 33 34 35 36 37 38 40 41 41 42 43 44 45 46 46 47 48
5 4 3 2 1 1 2 3 4 5 6 8 9 10 11 12 12 13 13 13 13 13 14 14 14 14 15 15 16 17 18 18 19 20 21 22 23 23 24 25 26 27 28 29 30 31 31 32 33 34 35 36 37 38 39 40 40 41 42 43 44 44 45
6 6 5 5 4 4 4 4 4 4 5 6 7 8 9 10 10 11 11 12 13 13 14 14 14 14 15 15 15 16 16 17 18 18 19 20 21 22 23 24 25 25 26 27 28 29 30 30 31 32 33 33 34 35 36 37 38 39 40 40 41 41 41
Wind_Direction
247 246 246 246 246 246 246 245 244 243 241 240 239 238 236 235 235 236 237 237 238 239 240 241 242 243 243 243 243 244 244 244 244 245 246 246 247 247 247 248 248 247 247 247 248 248 249 250 251 252 253 253 252 251 251 250 251 251 252 253 253 253 254
246 246 246 246 246 246 246 245 245 245 243 241 240 238 238 237 235 235 235 236 237 238 238 239 241 242 243 243 243 243 244 244 244 244 245 246 247 247 248 248 249 248 247 247 248 248 249 250 251 251 252 252 253 252 252 251 252 252 253 253 254 254 254
246 245 245 244 245 245 245 245 245 245 244 243 241 239 239 238 237 235 235 235 236 237 238 238 239 240 241 243 243 243 243 244 244 244 245 246 247 247 247 248 249 249 248 248 248 249 249 250 250 251 251 252 252 253 253 252 252 253 253 253 254 254 255
247 246 244 244 243 243 243 244 244 244 244 243 243 241 240 239 238 237 236 236 236 236 237 238 238 239 240 241 243 243 243 243 243 244 244 245 246 247 247 248 249 249 249 249 248 248 249 250 250 250 251 252 252 253 253 253 253 253 253 254 254 254 255
248 247 245 244 244 243 243 243 242 242 242 242 242 242 241 240 239 238 237 237 236 236 237 237 238 238 239 240 242 243 244 244 243 244 244 245 246 247 247 248 249 249 249 249 249 249 249 249 250 250 251 252 252 253 253 253 253 253 253 254 254 254 255
248 247 246 245 244 244 243 243 242 241 241 240 240 240 241 240 240 239 238 238 238 238 238 238 238 238 239 240 241 242 243 244 244 244 244 245 246 246 247 248 249 249 249 249 250 249 249 249 249 249 250 251 252 253 253 253 253 253 254 254 254 254 254
248 248 247 246 245 245 244 243 242 242 241 240 239 239 239 239 240 239 239 239 238 238 239 239 239 239 239 240 240 241 242 243 244 244 244 245 245 246 247 248 249 250 250 250 250 250 250 249 249 249 249 250 251 252 253 253 254 254 254 254 253 253 253
250 248 247 246 245 245 244 244 243 242 242 241 240 239 238 238 238 238 239 239 239 238 239 239 239 240 240 240 241 241 241 242 243 244 245 245 245 246 247 248 249 250 251 251 250 250 250 251 250 250 249 249 249 250 251 252 252 252 252 252 252 252 252
251 250 248 246 245 245 245 244 243 242 242 241 240 239 238 237 237 237 237 238 238 238 238 238 239 239 240 240 240 241 242 242 243 244 245 245 245 246 247 247 248 249 250 251 251 250 250 251 251 251 250 249 249 249 249 250 250 250 251 251 251 251 252
252 251 249 248 246 245 244 244 244 243 242 241 240 239 239 238 237 236 236 236 237 237 237 238 238 238 239 239 240 241 242 242 242 243 244 245 245 246 246 247 247 248 249 250 250 250 250 250 250 250 250 250 249 248 248 249 250 250 250 251 251 252 252
252 252 251 250 249 247 245 244 244 243 242 241 240 239 239 238 238 237 237 237 237 237 237 237 237 238 238 238 239 240 241 241 242 242 243 244 245 246 247 247 248 248 249 249 249 249 248 249 249 249 249 249 248 248 248 249 249 250 250 250 251 251 252
252 252 251 251 250 249 247 246 244 243 242 241 241 240 240 239 238 238 237 237 237 237 237 237 237 237 237 237 238 239 239 240 241 241 242 243 244 245 246 248 249 250 251 251 251 250 249 248 248 249 249 249 248 248 248 248 249 249 249 250 250 251 251
252 250 249 249 250 249 249 248 247 245 243 242 241 241 240 240 239 238 238 238 238 238 238 238 238 238 238 238 238 239 239 240 240 241 241 242 243 244 246 247 248 250 251 252 252 252 251 250 249 249 249 249 249 248 248 248 248 249 249 249 249 250 251
256 254 252 250 249 249 248 248 248 247 246 244 242 241 240 240 240 239 239 239 239 238 238 238 238 239 239 239 239 239 239 240 240 240 241 242 242 243 244 246 247 248 250 251 252 252 252 251 250 249 249 248 249 249 249 249 249 249 249 249 249 249 250
260 259 256 254 251 249 247 246 245 245 245 244 243 242 241 240 240 239 239 239 238 238 238 238 238 238 239 239 240 240 240 240 241 241 241 242 242 243 243 244 245 246 247 248 249 249 250 250 250 249 249 248 248 248 249 249 249 249 249 249 249 249 250
260 259 258 257 255 252 249 247 245 244 244 243 242 242 241 241 241 240 239 238 238 238 238 238 238 238 239 240 240 240 241 242 242 242 242 242 242 242 242 242 243 243 244 245 245 246 247 247 248 248 247 247 247 247 248 248 248 248 248 248 249 249 250
257 256 256 256 256 255 253 250 248 246 244 243 241 240 240 240 241 242 241 240 240 239 239 239 240 240 240 241 241 241 242 242 243 243 243 243 242 242 242 242 242 242 242 243 243 244 244 245 245 246 245 245 245 245 246 247 247 248 248 248 248 249 249
254 254 253 253 253 253 252 250 248 246 245 243 241 240 239 239 240 241 243 243 243 242 240 239 239 239 239 240 241 241 242 242 242 242 242 242 242 241 241 241 241 242 242 242 243 243 243 244 245 245 245 245 244 244 244 245 246 247 247 248 248 248 249
254 253 252 251 250 250 249 248 247 246 245 243 242 241 241 241 240 240 241 242 242 243 242 241 239 238 238 238 238 239 240 240 240 240 240 241 241 241 241 241 241 242 242 242 243 243 243 244 244 245 245 245 245 244 244 244 245 246 247 248 248 249 250
255 253 251 250 250 250 249 248 247 246 245 244 242 240 240 241 240 240 240 240 240 241 242 242 242 241 240 240 240 239 239 239 238 239 240 241 241 241 241 241 241 242 243 243 243 243 243 244 244 245 245 245 245 244 244 244 245 247 248 249 250 250 251
258 255 253 252 250 250 249 249 247 246 245 243 242 240 240 240 241 241 241 241 241 241 241 241 241 241 242 242 242 242 242 240 239 238 239 239 240 241 242 242 242 242 243 243 243 243 243 243 244 244 245 245 245 244 245 245 247 248 249 250 250 251 252
259 257 256 254 253 251 250 249 248 247 246 246 245 244 242 242 241 242 242 242 243 243 243 242 242 242 242 242 242 243 243 242 241 240 239 238 238 239 241 242 243 243 243 242 242 242 242 242 243 243 244 244 244 245 245 246 246 247 247 247 248 249 251
255 254 254 254 254 253 252 250 249 249 248 247 247 247 246 245 244 243 242 242 243 243 244 244 244 243 242 242 241 241 241 241 241 241 241 240 239 239 239 240 241 241 242 241 241 241 242 242 242 243 243 244 244 245 245 245 245 245 246 247 248 249 249
255 252 251 251 252 252 252 250 249 248 247 247 247 246 245 245 244 243 242 241 241 241 242 242 243 243 243 243 242 241 240 240 240 240 242 242 242 241 240 239 239 239 240 241 241 241 242 241 242 242 243 244 245 244 244 244 244 245 245 246 247 247 248
269 263 259 255 254 253 252 252 251 249 248 247 246 245 243 242 240 239 237 237 237 238 239 240 241 242 242 242 242 242 241 240 239 240 241 241 242 242 241 240 239 240 240 240 240 240 241 241 241 242 243 244 243 243 243 243 243 244 245 245 246 247 248
280 276 271 268 264 262 260 258 257 255 253 251 249 246 244 242 239 237 235 235 234 235 236 237 238 239 240 241 242 242 241 240 239 239 239 240 241 241 241 241 241 241 241 241 241 241 242 242 243 243 243 242 241 241 242 242 243 244 245 246 247 248 248
284 281 279 276 273 270 267 265 263 261 259 257 254 252 248 245 242 239 237 235 233 233 234 235 236 237 239 240 241 241 240 239 238 238 238 239 240 240 241 241 241 241 241 241 241 242 243 244 244 244 242 241 241 242 242 243 244 245 246 247 248 248 249
289 286 281 277 272 269 266 263 262 261 260 258 256 254 252 250 247 243 240 237 235 234 234 234 235 236 237 238 239 240 240 239 238 237 237 237 238 238 239 240 240 240 240 239 239 240 241 242 243 242 242 242 243 244 245 245 246 246 246 247 247 247 248
294 285 276 270 266 263 261 259 257 256 255 254 253 252 251 250 248 246 244 241 238 237 235 235 235 235 236 236 237 238 238 238 237 237 236 235 236 236 236 237 237 238 238 238 238 239 240 241 242 242 243 244 245 245 246 246 245 245 245 245 245 246 247
293 281 271 265 261 257 253 249 247 247 246 247 248 248 248 248 247 247 245 243 240 238 236 235 235 235 236 237 237 237 237 236 236 235 234 234 233 233 233 233 234 234 235 235 236 237 238 239 240 240 241 242 242 243 243 243 243 243 243 244 246 247 249
298 284 272 264 256 248 241 236 234 234 233 235 237 239 240 242 242 243 243 242 240 238 237 236 237 237 238 238 238 237 237 237 236 235 234 233 232 231 231 231 231 231 232 232 234 235 235 236 236 237 238 238 239 240 241 242 244 245 246 247 249 251 252
312 293 276 265 252 242 231 225 222 220 217 216 217 218 220 223 225 228 230 233 233 234 234 235 237 238 240 240 240 239 238 237 237 236 235 234 234 233 232 231 231 231 232 233 234 235 236 237 238 239 240 241 242 244 245 246 247 248 250 250 251 252 253
353 337 296 265 245 234 225 220 216 212 207 203 201 200 200 200 202 206 210 215 219 222 225 227 228 230 233 234 236 236 237 236 236 235 235 236 235 235 235 235 235 236 236 237 238 239 239 241 242 243 244 245 246 246 247 248 248 249 249 250 250 251 252
40 40 26 342 249 229 224 222 220 215 208 202 198 196 194 192 191 193 195 199 203 206 209 212 215 218 220 223 225 227 229 230 230 231 231 231 232 233 234 234 235 236 237 237 238 239 240 241 242 242 243 244 244 245 246 246 247 247 248 248 249 249 249
59 61 60 66 92 163 189 200 207 212 209 203 198 196 194 191 189 190 190 192 193 194 195 199 202 205 209 213 217 220 223 224 226 227 227 228 229 230 231 232 232 233 234 235 236 237 238 238 239 240 241 242 243 244 244 245 246 246 246 246 247 247 247
70 74 77 84 96 111 125 139 151 163 174 182 185 186 186 187 187 188 190 192 192 191 192 193 195 197 200 203 206 210 213 216 218 220 222 223 225 226 228 229 230 230 231 232 233 235 236 237 238 239 240 241 242 243 243 243 243 244 244 244 245 245 246
Height
9963 9966 9969 9971 9973 9975 9978 9982 9985 9989 9996 10002 10007 10012 10017 10022 10027 10032 10038 10043 10048 10053 10057 10061 10066 10072 10079 10085 10091 10097 10103 10108 10114 10118 10122 10126 10132 10139 10144 10148 10157 10168 10175 10179 10182 10185 10188 10191 10195 10200 10206 10211 10215 10221 10226 10229 10231 10232 10236 10240 10244 10248 10252
9954 9956 9958 9961 9963 9966 9968 9971 9974 9978 9984 9989 9994 9999 10003 10007 10012 10018 10023 10028 10032 10038 10042 10047 10052 10057 10063 10068 10073 10080 10086 10093 10099 10104 10107 10111 10116 10123 10128 10132 10139 10149 10157 10163 10168 10170 10174 10178 10182 10188 10192 10194 10197 10202 10207 10212 10216 10219 10222 10226 10230 10233 10236
9944 9946 9948 9950 9953 9956 9959 9962 9965 9968 9973 9977 9982 9986 9990 9994 9999 10005 10009 10014 10019 10023 10027 10032 10038 10044 10048 10050 10056 10064 10071 10077 10083 10089 10093 10097 10101 10107 10113 10117 10122 10129 10138 10147 10154 10156 10160 10164 10169 10173 10176 10177 10180 10184 10190 10198 10203 10205 10208 10212 10215 10217 10219
9934 9936 9938 9941 9943 9946 9948 9951 9955 9958 9962 9965 9970 9974 9978 9982 9987 9992 9996 10001 10005 10009 10013 10019 10026 10031 10034 10036 10040 10049 10056 10062 10068 10073 10078 10083 10086 10091 10097 10101 10107 10112 10120 10129 10138 10143 10148 10151 10154 10158 10160 10162 10166 10170 10176 10183 10187 10191 10194 10197 10200 10202 10204
9925 9927 9930 9932 9935 9937 9939 9942 9945 9948 9951 9955 9958 9962 9967 9971 9976 9980 9984 9989 9993 9997 10001 10007 10013 10018 10021 10023 10029 10035 10040 10046 10053 10059 10064 10069 10073 10077 10081 10086 10091 10097 10103 10112 10121 10129 10134 10137 10140 10144 10146 10149 10153 10157 10162 10166 10170 10175 10178 10181 10185 10189 10190
9916 9919 9921 9923 9926 9928 9930 9933 9935 9938 9941 9945 9948 9952 9956 9961 9965 9969 9973 9978 9982 9986 9990 9995 10000 10004 10007 10011 10018 10024 10026 10031 10038 10044 10050 10055 10060 10064 10066 10069 10074 10081 10089 10097 10105 10112 10118 10123 10128 10131 10134 10136 10140 10143 10146 10149 10154 10160 10165 10169 10172 10175 10176
9909 9911 9912 9915 9917 9919 9922 9924 9927 9929 9932 9935 9939 9943 9947 9951 9955 9959 9963 9967 9971 9975 9979 9984 9988 9992 9996 10000 10006 10010 10013 10017 10022 10029 10036 10042 10046 10049 10052 10056 10060 10066 10073 10082 10090 10096 10102 10108 10113 10118 10122 10125 10127 10129 10133 10137 10142 10147 10151 10153 10155 10157 10158
9902 9903 9904 9906 9908 9910 9913 9916 9918 9921 9924 9927 9931 9934 9938 9941 9944 9948 9952 9955 9959 9963 9968 9972 9976 9980 9985 9990 9994 9997 10001 10005 10009 10015 10022 10028 10032 10035 10040 10044 10048 10051 10057 10067 10076 10084 10089 10092 10097 10103 10109 10113 10117 10121 10125 10126 10126 10127 10130 10132 10135 10139 10142
9895 9896 9897 9899 9900 9902 9905 9907 9910 9913 9916 9919 9922 9925 9928 9931 9934 9937 9940 9943 9947 9951 9955 9959 9964 9968 9973 9977 9981 9985 9988 9993 9998 10003 10008 10014 10018 10022 10028 10032 10035 10038 10043 10051 10061 10070 10075 10078 10082 10088 10093 10099 10105 10109 10110 10108 10106 10108 10111 10114 10119 10125 10128
9887 9889 9890 9891 9893 9895 9897 9899 9902 9905 9908 9911 9913 9916 9918 9921 9924 9927 9930 9932 9935 9939 9943 9947 9951 9956 9960 9965 9969 9972 9976 9980 9985 9990 9995 9999 10003 10007 10013 10018 10022 10025 10030 10036 10045 10055 10060 10064 10068 10073 10078 10083 10088 10091 10091 10091 10092 10095 10097 10100 10105 10110 10114
9880 9882 9884 9885 9886 9888 9890 9892 9894 9898 9901 9903 9905 9907 9909 9912 9915 9918 9921 9923 9925 9929 9932 9936 9940 9944 9948 9953 9957 9960 9964 9968 9973 9978 9982 9985 9988 9993 9997 10002 10006 10012 10016 10022 10030 10039 10046 10050 10055 10059 10062 10067 10072 10074 10076 10077 10078 10080 10083 10087 10091 10096 10098
9874 9876 9877 9878 9879 9880 9883 9884 9887 9890 9892 9894 9897 9899 9902 9905 9907 9909 9911 9913 9916 9919 9922 9925 9929 9932 9936 9940 9943 9947 9951 9955 9960 9965 9969 9972 9976 9980 9984 9988 9993 9998 10002 10008 10015 10023 10031 10037 10042 10044 10048 10053 10058 10060 10060 10060 10062 10066 10071 10075 10079 10081 10082
9868 9869 9870 9871 9872 9874 9876 9877 9880 9882 9885 9887 9890 9892 9895 9896 9898 9900 9902 9904 9907 9910 9913 9917 9920 9923 9926 9930 9933 9937 9941 9945 9949 9953 9957 9961 9965 9970 9974 9978 9982 9986 9990 9995 10001 10008 10016 10024 10027 10031 10036 10040 10042 10043 10044 10045 10050 10055 10058 10061 10065 10066 10066
9861 9862 9864 9865 9867 9868 9870 9872 9873 9875 9877 9880 9882 9885 9887 9888 9890 9892 9894 9897 9900 9903 9906 9909 9912 9915 9918 9920 9924 9928 9931 9934 9938 9942 9946 9951 9956 9961 9966 9970 9974 9977 9981 9985 9989 9996 10002 10007 10010 10016 10023 10025 10026 10029 10030 10032 10037 10041 10044 10047 10050 10051 10052
9855 9856 9857 9858 9860 9861 9863 9865 9867 9868 9870 9872 9875 9877 9879 9881 9882 9884 9886 9888 9891 9894 9897 9900 9903 9906 9908 9911 9915 9918 9921 9924 9928 9932 9938 9943 9948 9952 9956 9960 9964 9967 9969 9973 9978 9983 9988 9991 9995 10002 10008 10011 10013 10017 10018 10019 10023 10027 10030 10033 10036 10037 10039
9850 9850 9850 9851 9853 9854 9857 9859 9861 9862 9863 9866 9868 9870 9872 9872 9873 9875 9877 9879 9882 9885 9889 9892 9895 9898 9900 9903 9907 9910 9913 9916 9920 9925 9930 9934 9938 9941 9945 9948 9951 9953 9956 9961 9966 9971 9974 9978 9983 9989 9994 9998 10001 10004 10005 10006 10008 10012 10016 10020 10022 10024 10026
9845 9845 9846 9846 9847 9848 9850 9852 9854 9855 9857 9859 9861 9863 9864 9865 9865 9866 9868 9871 9875 9879 9882 9885 9888 9891 9894 9897 9899 9901 9905 9909 9913 9917 9921 9923 9926 9929 9933 9936 9938 9940 9945 9949 9954 9958 9962 9966 9970 9975 9980 9985 9988 9991 9992 9992 9994 9998 10003 10006 10008 10010 10012
9840 9841 9841 9842 9842 9843 9845 9846 9848 9849 9850 9852 9854 9856 9856 9858 9859 9860 9861 9864 9867 9871 9874 9877 9880 9883 9886 9888 9889 9892 9896 9900 9903 9907 9910 9911 9914 9917 9921 9924 9925 9928 9934 9938 9943 9947 9950 9954 9958 9962 9967 9971 9975 9978 9979 9980 9982 9986 9989 9992 9994 9996 9998
9836 9836 9836 9837 9837 9838 9839 9841 9842 9843 9844 9846 9848 9849 9850 9851 9853 9854 9856 9858 9860 9863 9865 9868 9871 9874 9876 9878 9880 9883 9887 9891 9894 9897 9899 9900 9903 9907 9911 9912 9914 9918 9924 9928 9932 9936 9939 9943 9947 9951 9955 9958 9962 9966 9968 9969 9971 9973 9976 9979 9982 9984 9987
9832 9832 9832 9832 9833 9833 9834 9836 9837 9838 9839 9841 9842 9843 9844 9845 9846 9848 9850 9852 9854 9856 9859 9861 9864 9866 9869 9871 9873 9877 9880 9884 9888 9890 9891 9892 9896 9899 9901 9902 9905 9910 9915 9919 9923 9927 9930 9934 9937 9941 9944 9947 9951 9955 9957 9959 9961 9964 9967 9970 9973 9975 9977
9827 9828 9828 9828 9828 9829 9830 9831 9832 9833 9834 9835 9836 9837 9838 9839 9841 9843 9845 9847 9849 9850 9853 9855 9857 9860 9862 9865 9867 9870 9873 9877 9881 9883 9884 9887 9889 9890 9892 9895 9899 9904 9908 9912 9915 9918 9921 9925 9928 9931 9934 9938 9941 9945 9948 9952 9955 9958 9961 9963 9965 9967 9968
9824 9824 9824 9824 9824 9825 9825 9826 9827 9827 9828 9830 9831 9832 9834 9836 9837 9839 9840 9842 9843 9845 9847 9849 9852 9854 9857 9859 9862 9864 9866 9869 9872 9874 9876 9880 9882 9884 9886 9890 9894 9898 9902 9904 9906 9908 9912 9916 9919 9922 9926 9929 9932 9938 9943 9945 9947 9949 9951 9952 9954 9956 9958
9822 9821 9821 9821 9821 9821 9822 9822 9823 9824 9825 9826 9827 9828 9830 9832 9833 9835 9836 9838 9839 9840 9842 9844 9846 9849 9851 9853 9856 9858 9860 9862 9864 9866 9869 9872 9875 9878 9880 9884 9887 9890 9892 9895 9897 9900 9905 9909 9912 9914 9917 9921 9926 9932 9936 9937 9938 9939 9940 9942 9944 9947 9949
9819 9818 9818 9818 9818 9818 9819 9819 9820 9820 9821 9822 9823 9825 9826 9827 9829 9830 9831 9833 9834 9835 9837 9839 9841 9843 9845 9847 9850 9852 9854 9856 9858 9860 9863 9866 9869 9871 9874 9877 9879 9881 9884 9887 9891 9894 9898 9902 9904 9907 9910 9915 9921 9925 9926 9926 9928 9929 9931 9933 9935 9937 9939
9814 9815 9815 9815 9815 9815 9815 9816 9816 9817 9818 9819 9820 9821 9822 9823 9824 9825 9826 9827 9828 9830 9832 9834 9836 9838 9840 9842 9844 9846 9848 9851 9853 9856 9858 9860 9863 9865 9868 9871 9873 9875 9878 9881 9885 9887 9890 9894 9897 9900 9905 9910 9914 9914 9915 9916 9918 9920 9922 9924 9926 9927 9929
9811 9810 9810 9811 9811 9811 9811 9812 9813 9813 9814 9815 9816 9817 9818 9819 9820 9821 9822 9823 9825 9826 9828 9830 9831 9833 9835 9837 9838 9841 9844 9846 9849 9851 9853 9855 9857 9860 9862 9865 9868 9870 9873 9876 9879 9882 9884 9887 9891 9895 9900 9902 9902 9903 9905 9908 9910 9912 9914 9916 9917 9919 9920
9808 9808 9807 9807 9807 9808 9808 9808 9809 9810 9810 9811 9812 9813 9814 9814 9816 9817 9818 9820 9821 9823 9824 9826 9827 9829 9830 9832 9834 9837 9839 9842 9844 9846 9848 9850 9853 9855 9858 9860 9863 9866 9868 9871 9874 9876 9878 9881 9885 9888 9890 9891 9893 9895 9898 9900 9902 9905 9907 9908 9910 9911 9912
9807 9806 9806 9805 9805 9805 9805 9806 9806 9806 9807 9807 9808 9809 9809 9810 9812 9813 9815 9816 9817 9819 9820 9822 9824 9825 9827 9828 9830 9832 9835 9837 9839 9841 9844 9846 9848 9850 9853 9855 9858 9861 9863 9866 9868 9870 9872 9875 9877 9880 9882 9884 9886 9888 9891 9893 9895 9898 9899 9900 9901 9902 9903
9806 9805 9805 9804 9804 9804 9804 9804 9804 9804 9804 9804 9805 9806 9806 9807 9808 9810 9811 9812 9814 9816 9817 9819 9820 9822 9823 9824 9826 9828 9830 9832 9835 9837 9839 9841 9843 9845 9848 9850 9853 9855 9858 9860 9862 9865 9867 9869 9872 9874 9876 9878 9880 9882 9884 9886 9888 9889 9890 9891 9892 9894 9895
9806 9805 9804 9804 9803 9803 9803 9802 9802 9802 9802 9803 9803 9804 9804 9805 9806 9807 9808 9809 9811 9812 9814 9815 9817 9818 9819 9821 9823 9825 9826 9828 9830 9832 9834 9836 9838 9840 9843 9845 9847 9850 9852 9854 9857 9859 9861 9864 9866 9868 9870 9872 9873 9875 9876 9878 9879 9881 9883 9884 9885 9887 9889
9805 9805 9804 9803 9803 9802 9802 9801 9801 9801 9801 9802 9802 9802 9803 9803 9804 9805 9806 9807 9808 9809 9811 9812 9813 9815 9816 9818 9820 9822 9823 9825 9826 9828 9829 9831 9833 9835 9837 9840 9842 9844 9846 9849 9851 9853 9855 9858 9860 9861 9863 9865 9866 9868 9870 9872 9873 9875 9877 9879 9881 9882 9884
9805 9805 9804 9803 9803 9802 9801 9801 9801 9801 9801 9801 9801 9801 9802 9802 9803 9803 9804 9805 9806 9807 9808 9809 9811 9812 9814 9816 9817 9819 9820 9822 9823 9825 9826 9828 9829 9831 9833 9835 9837 9839 9841 9844 9846 9848 9850 9852 9854 9856 9858 9860 9862 9863 9865 9867 9869 9871 9872 9874 9875 9877 9877
9806 9805 9804 9803 9803 9802 9801 9801 9801 9800 9800 9800 9800 9800 9800 9801 9801 9802 9802 9803 9804 9805 9806 9807 9808 9810 9811 9813 9814 9816 9817 9819 9820 9822 9823 9825 9826 9828 9830 9832 9834 9836 9838 9840 9842 9844 9846 9848 9850 9852 9854 9855 9857 9859 9860 9862 9863 9865 9866 9867 9868 9869 9870
9806 9805 9804 9804 9803 9803 9802 9802 9801 9801 9800 9800 9800 9799 9800 9800 9800 9800 9801 9802 9802 9803 9804 9805 9806 9807 9808 9810 9811 9812 9814 9815 9817 9818 9820 9822 9823 9825 9827 9829 9830 9832 9834 9836 9838 9840 9842 9843 9845 9847 9848 9850 9851 9853 9854 9856 9857 9858 9859 9860 9861 9862 9863
9806 9806 9805 9805 9804 9804 9803 9803 9802 9802 9802 9801 9801 9800 9800 9800 9800 9800 9800 9801 9801 9802 9803 9804 9805 9806 9807 9808 9809 9810 9812 9813 9814 9816 9817 9819 9820 9822 9823 9825 9827 9828 9830 9832 9834 9835 9837 9838 9840 9842 9843 9845 9846 9847 9849 9850 9851 9852 9853 9854 9854 9855 9856
9807 9806 9806 9805 9805 9804 9804 9803 9803 9803 9803 9802 9802 9802 9801 9801 9801 9801 9801 9801 9802 9802 9803 9804 9804 9805 9806 9807 9808 9809 9810 9812 9813 9814 9815 9817 9818 9819 9821 9822 9824 9825 9827 9828 9830 9832 9833 9835 9836 9837 9839 9840 9841 9842 9843 9844 9845 9846 9847 9848 9849 9850 9851